Temp
82 81 81 81 81 81 81 81 82 82 80 81 80 81 81 82 83 83 82 82 82 82 81 81 81 81 82 81 81 80 80 80 80 79 79 79 77 77 78 77 75 75
81 82 82 82 81 81 81 82 82 82 81 80 81 81 82 82 83 84 82 82 82 82 82 82 82 81 81 81 80 80 79 79 79 81 79 79 78 78 78 77 77 75
82 81 82 81 82 81 82 82 82 82 82 83 82 82 81 83 83 83 83 82 82 83 82 82 82 81 81 81 80 80 80 79 79 81 79 79 78 78 78 79 77 76
81 82 82 82 83 82 83 82 81 82 83 82 82 83 84 84 83 83 83 83 82 82 83 83 82 82 82 81 81 80 80 79 80 80 79 78 79 79 78 78 79 78
82 82 83 83 83 83 83 82 82 82 83 83 84 83 83 83 83 83 83 83 82 82 82 82 82 82 82 81 81 80 80 79 79 79 78 78 78 79 79 78 77 78
82 82 82 83 83 82 82 82 83 83 83 83 84 85 83 84 84 84 83 83 83 83 83 83 82 83 82 81 81 80 81 80 80 80 78 78 79 80 81 79 77 77
82 82 82 83 83 83 83 83 83 83 84 84 84 84 85 83 83 84 84 84 83 83 83 82 82 82 82 82 81 80 80 80 80 80 79 78 78 78 81 79 78 77
83 83 83 83 83 83 83 83 83 83 84 84 83 84 85 85 83 84 84 84 84 83 83 83 82 82 82 82 81 80 80 81 80 79 79 79 78 78 79 80 78 77
83 83 83 83 83 84 84 84 84 84 84 84 84 85 85 86 85 84 83 84 84 83 83 83 82 82 82 82 81 80 80 80 81 80 79 79 78 78 79 79 78 77
83 83 83 84 83 84 84 85 85 85 85 84 85 86 84 85 85 85 83 83 83 83 83 83 82 82 82 82 81 81 80 80 80 80 80 80 80 79 79 79 79 78
83 84 83 83 84 85 85 86 86 86 86 85 85 85 86 85 84 85 84 82 83 83 83 83 83 83 82 83 82 82 81 81 81 80 80 80 80 80 81 79 79 79
83 84 84 84 84 85 86 86 87 87 86 86 86 86 86 86 84 84 84 83 83 83 83 83 83 83 83 83 83 83 82 82 81 81 81 80 80 80 81 80 80 80
84 84 84 85 84 85 86 86 87 88 88 87 87 87 86 85 85 84 84 84 84 84 84 83 83 83 83 83 83 83 82 81 81 81 81 81 81 81 81 81 81 81
85 84 84 84 85 85 85 86 86 87 87 87 86 86 86 86 85 84 84 84 84 84 84 84 84 83 83 83 83 83 82 81 81 81 81 81 81 81 82 82 81 82
85 85 85 85 85 84 84 85 85 86 86 86 85 86 86 87 87 86 85 84 84 84 84 84 84 84 84 83 83 82 83 82 82 81 81 81 81 81 81 82 82 82
85 85 84 84 84 83 83 84 85 85 85 85 85 85 86 86 86 86 86 85 84 84 84 84 84 84 79 72 75 83 83 83 82 82 81 81 80 80 81 81 82 83
85 84 84 83 83 84 83 83 84 85 85 84 84 85 85 85 85 86 86 86 85 84 84 84 84 84 72 68 69 72 81 83 82 81 82 81 81 80 80 81 81 82
85 84 84 83 83 83 83 83 84 84 84 84 84 84 84 85 85 85 85 86 85 85 85 84 85 75 69 67 68 68 72 83 83 82 82 81 81 81 81 81 81 82
85 84 84 84 83 83 83 83 83 83 83 84 84 85 85 84 84 85 85 85 85 85 85 85 85 74 68 66 66 67 67 75 84 83 82 82 82 82 81 81 81 81
85 85 84 84 83 83 83 83 83 83 84 85 85 85 84 84 84 84 84 84 85 85 84 86 85 75 67 65 65 65 66 70 84 83 83 82 82 82 82 82 81 81
85 85 84 84 84 83 83 83 83 83 83 84 85 85 84 84 84 84 84 84 86 86 85 85 87 73 66 64 63 63 65 67 82 83 83 82 82 82 82 82 82 82
86 85 84 84 84 83 83 83 83 83 83 84 85 86 86 86 85 86 85 84 85 86 86 85 87 71 65 63 62 62 63 72 79 81 82 82 82 82 82 83 83 82
86 85 85 84 84 83 83 83 83 83 83 84 84 85 86 86 85 86 86 86 85 85 84 85 86 74 63 61 60 60 63 75 78 80 81 82 82 82 82 82 82 82
86 86 85 84 84 84 83 84 84 84 85 84 84 85 85 87 87 86 86 86 86 85 86 85 86 76 60 59 58 59 65 76 78 79 80 81 82 82 82 81 82 77
86 86 86 85 84 84 85 84 84 84 85 85 85 86 86 87 86 86 86 86 87 87 79 83 86 79 60 58 57 58 64 77 78 79 79 80 80 81 81 82 82 78
87 85 85 85 85 85 85 85 85 85 85 85 85 86 85 86 86 86 86 87 86 86 86 85 85 85 74 56 56 56 59 75 78 78 78 79 80 80 80 81 81 82
MSLP
1011.77 1012.01 1012.37 1012.61 1012.77 1012.89 1013.17 1013.49 1013.57 1013.89 1014.09 1014.21 1014.53 1014.57 1014.65 1014.69 1014.77 1015.01 1015.17 1015.41 1015.61 1015.89 1016.05 1016.25 1016.37 1016.57 1016.65 1016.81 1016.97 1017.21 1017.49 1017.65 1017.81 1017.93 1018.17 1018.41 1018.69 1018.81 1019.05 1019.09 1019.21 1019.37
1011.37 1011.57 1011.81 1012.09 1012.41 1012.53 1012.69 1012.81 1013.13 1013.37 1013.65 1013.77 1013.85 1014.05 1014.21 1014.41 1014.53 1014.65 1014.97 1015.25 1015.41 1015.61 1015.73 1015.93 1016.09 1016.29 1016.45 1016.65 1016.85 1017.13 1017.37 1017.53 1017.77 1017.57 1018.05 1018.29 1018.49 1018.57 1018.73 1018.81 1018.93 1019.01
1010.93 1011.29 1011.57 1011.89 1012.09 1012.29 1012.37 1012.45 1012.65 1012.89 1013.17 1013.25 1013.41 1013.69 1014.01 1014.01 1014.33 1014.41 1014.61 1014.89 1015.21 1015.37 1015.53 1015.65 1015.89 1016.01 1016.17 1016.37 1016.57 1016.85 1017.17 1017.37 1017.65 1017.53 1017.77 1018.09 1018.17 1018.45 1018.49 1018.53 1018.69 1018.77
1010.61 1010.73 1011.05 1011.29 1011.49 1011.81 1011.89 1012.29 1012.49 1012.61 1012.77 1013.17 1013.33 1013.33 1013.49 1013.77 1013.97 1014.29 1014.45 1014.57 1014.93 1015.13 1015.21 1015.41 1015.61 1015.77 1015.93 1016.09 1016.33 1016.65 1016.81 1017.01 1017.09 1017.25 1017.65 1017.81 1017.93 1018.09 1018.29 1018.37 1018.49 1018.61
1010.13 1010.41 1010.65 1010.89 1011.09 1011.29 1011.57 1011.97 1012.25 1012.41 1012.57 1012.65 1012.81 1013.05 1013.29 1013.53 1013.81 1014.01 1014.21 1014.37 1014.53 1014.81 1014.97 1015.17 1015.29 1015.49 1015.61 1015.85 1016.05 1016.45 1016.57 1016.85 1016.85 1017.05 1017.45 1017.73 1017.69 1017.85 1017.97 1018.17 1018.45 1018.61
1009.69 1009.85 1010.09 1010.45 1010.69 1011.01 1011.41 1011.65 1011.77 1012.01 1012.25 1012.49 1012.57 1012.61 1012.85 1013.05 1013.37 1013.61 1013.85 1014.09 1014.25 1014.45 1014.69 1014.85 1015.09 1015.21 1015.33 1015.57 1015.85 1016.09 1016.29 1016.57 1016.61 1016.77 1017.17 1017.45 1017.53 1017.45 1017.65 1017.89 1018.21 1018.45
1009.69 1009.81 1010.01 1010.13 1010.45 1010.61 1010.93 1011.13 1011.33 1011.53 1011.77 1011.81 1012.01 1012.33 1012.41 1012.77 1012.97 1013.17 1013.37 1013.61 1013.89 1014.13 1014.37 1014.61 1014.81 1015.01 1015.05 1015.33 1015.65 1015.93 1016.05 1016.21 1016.37 1016.57 1016.85 1017.09 1017.21 1017.41 1017.29 1017.57 1017.85 1018.13
1009.29 1009.41 1009.61 1009.81 1010.09 1010.29 1010.57 1010.77 1011.01 1011.21 1011.25 1011.53 1011.89 1011.85 1011.93 1012.29 1012.61 1012.73 1012.93 1013.17 1013.49 1013.77 1013.97 1014.17 1014.41 1014.57 1014.73 1014.97 1015.41 1015.69 1015.93 1015.93 1016.21 1016.41 1016.65 1016.81 1016.93 1017.21 1017.17 1017.21 1017.45 1017.85
1008.93 1009.25 1009.45 1009.69 1009.93 1010.05 1010.25 1010.41 1010.61 1010.73 1010.85 1011.25 1011.45 1011.57 1011.61 1011.81 1012.09 1012.33 1012.57 1012.81 1013.09 1013.37 1013.61 1013.81 1013.97 1014.21 1014.29 1014.57 1014.93 1015.25 1015.53 1015.65 1015.69 1015.97 1016.25 1016.53 1016.77 1016.81 1016.85 1016.85 1017.21 1017.45
1008.65 1008.81 1009.17 1009.37 1009.65 1009.65 1009.89 1009.97 1010.13 1010.37 1010.49 1010.81 1010.97 1011.13 1011.45 1011.45 1011.57 1011.93 1012.25 1012.53 1012.77 1013.01 1013.21 1013.37 1013.57 1013.73 1013.89 1014.05 1014.37 1014.65 1014.97 1015.21 1015.29 1015.45 1015.65 1015.81 1016.05 1016.25 1016.41 1016.57 1016.73 1017.05
1008.17 1008.37 1008.69 1008.93 1009.13 1009.21 1009.41 1009.53 1009.69 1009.93 1010.09 1010.37 1010.57 1010.85 1010.93 1011.21 1011.45 1011.49 1011.93 1012.25 1012.49 1012.57 1012.77 1012.89 1013.01 1013.17 1013.45 1013.61 1013.77 1013.97 1014.29 1014.61 1014.81 1014.97 1015.13 1015.25 1015.37 1015.53 1015.69 1015.93 1016.17 1016.37
1007.49 1007.77 1008.13 1008.37 1008.57 1008.73 1008.89 1009.01 1009.17 1009.41 1009.65 1009.85 1010.01 1010.41 1010.57 1010.73 1011.05 1011.25 1011.41 1011.73 1011.81 1011.93 1012.09 1012.25 1012.41 1012.61 1012.85 1013.05 1013.25 1013.53 1013.85 1014.09 1014.25 1014.49 1014.61 1014.77 1014.89 1014.97 1015.09 1015.25 1015.53 1015.73
1007.05 1007.29 1007.41 1007.69 1007.93 1008.09 1008.25 1008.49 1008.65 1008.81 1009.05 1009.37 1009.45 1009.77 1010.13 1010.41 1010.57 1010.81 1010.85 1011.09 1011.25 1011.37 1011.61 1011.73 1011.93 1012.09 1012.37 1012.61 1012.81 1013.05 1013.37 1013.69 1013.93 1014.05 1014.21 1014.33 1014.37 1014.45 1014.49 1014.61 1014.81 1015.05
1006.37 1006.49 1006.77 1006.97 1007.17 1007.49 1007.73 1007.89 1008.09 1008.29 1008.45 1008.69 1008.97 1009.37 1009.61 1009.81 1010.05 1010.25 1010.33 1010.49 1010.65 1010.85 1010.93 1011.13 1011.45 1011.69 1011.89 1012.09 1012.33 1012.53 1012.89 1013.17 1013.33 1013.57 1013.77 1013.89 1013.93 1014.01 1014.09 1014.17 1014.29 1014.41
1005.69 1005.89 1006.09 1006.41 1006.73 1007.05 1007.33 1007.49 1007.61 1007.77 1008.01 1008.25 1008.49 1008.77 1008.93 1009.09 1009.25 1009.61 1009.97 1010.21 1010.25 1010.41 1010.57 1010.69 1011.01 1011.17 1011.29 1011.53 1011.89 1012.09 1012.21 1012.61 1012.77 1013.01 1013.25 1013.49 1013.61 1013.65 1013.69 1013.73 1013.85 1013.89
1005.09 1005.37 1005.65 1005.93 1006.33 1006.61 1006.81 1006.97 1007.21 1007.41 1007.61 1007.81 1008.01 1008.17 1008.41 1008.61 1008.89 1009.13 1009.37 1009.69 1009.97 1010.09 1010.21 1010.37 1010.49 1010.49 1010.53 1010.73 1010.93 1011.25 1011.61 1011.81 1012.13 1012.37 1012.61 1012.85 1013.13 1013.33 1013.37 1013.33 1013.33 1013.33
1004.57 1004.89 1005.21 1005.61 1005.69 1005.97 1006.25 1006.53 1006.73 1006.89 1007.17 1007.37 1007.57 1007.81 1008.05 1008.25 1008.49 1008.77 1008.89 1009.09 1009.37 1009.61 1009.85 1009.89 1009.89 1009.81 1009.97 1010.29 1010.53 1010.69 1010.93 1011.25 1011.57 1011.81 1011.93 1012.21 1012.49 1012.77 1012.97 1012.97 1012.93 1012.85
1004.09 1004.45 1004.81 1004.97 1005.25 1005.53 1005.73 1005.93 1006.17 1006.49 1006.77 1006.97 1007.25 1007.53 1007.61 1007.77 1008.13 1008.17 1008.33 1008.49 1008.73 1008.97 1009.21 1009.25 1009.25 1009.13 1009.45 1009.77 1010.09 1010.33 1010.49 1010.65 1010.89 1011.29 1011.53 1011.73 1011.89 1012.13 1012.25 1012.45 1012.57 1012.61
1003.49 1003.97 1004.33 1004.65 1004.81 1004.97 1005.25 1005.57 1005.89 1006.17 1006.37 1006.65 1006.85 1006.81 1007.13 1007.49 1007.49 1007.69 1007.93 1007.97 1008.21 1008.49 1008.57 1008.53 1008.57 1008.49 1008.89 1009.21 1009.53 1009.85 1010.05 1010.21 1010.33 1010.65 1011.05 1011.29 1011.41 1011.53 1011.73 1011.93 1012.05 1012.25
1002.89 1003.33 1003.77 1004.05 1004.33 1004.69 1004.97 1005.29 1005.53 1005.73 1005.73 1005.89 1006.21 1006.53 1006.77 1006.89 1007.01 1007.29 1007.41 1007.61 1007.65 1007.77 1007.89 1007.85 1007.85 1007.81 1008.29 1008.65 1009.01 1009.33 1009.61 1009.93 1009.89 1010.21 1010.49 1010.73 1010.89 1011.01 1011.17 1011.37 1011.49 1011.69
1002.25 1002.69 1003.17 1003.57 1003.89 1004.25 1004.65 1004.97 1005.13 1005.33 1005.61 1005.73 1005.89 1006.05 1006.25 1006.49 1006.69 1006.93 1006.93 1006.93 1007.01 1007.09 1007.33 1007.41 1007.09 1007.17 1007.69 1008.09 1008.49 1008.93 1009.29 1009.73 1009.77 1009.97 1010.25 1010.41 1010.41 1010.49 1010.61 1010.77 1010.89 1011.01
1001.69 1002.21 1002.61 1003.01 1003.45 1003.81 1004.21 1004.53 1004.77 1005.05 1005.33 1005.33 1005.49 1005.57 1005.65 1005.85 1006.05 1006.13 1006.37 1006.53 1006.53 1006.69 1006.89 1006.93 1006.49 1006.65 1007.09 1007.61 1008.17 1008.69 1009.17 1009.69 1009.73 1009.93 1010.01 1010.01 1010.05 1010.05 1010.17 1010.25 1010.37 1010.57
1001.13 1001.69 1002.17 1002.57 1002.89 1003.37 1003.73 1003.97 1004.29 1004.61 1004.81 1004.93 1005.45 1005.45 1005.61 1005.73 1005.73 1005.73 1005.69 1005.97 1006.21 1006.29 1006.41 1006.25 1006.17 1006.33 1006.77 1007.33 1007.89 1008.41 1009.13 1009.33 1009.53 1009.69 1009.73 1009.77 1009.65 1009.65 1009.85 1009.97 1010.05 1010.13
1000.65 1001.09 1001.69 1002.09 1002.45 1002.85 1003.17 1003.45 1003.65 1003.89 1004.21 1004.33 1004.89 1005.21 1005.37 1005.21 1005.25 1005.45 1005.45 1005.49 1005.73 1005.85 1005.73 1005.97 1005.93 1006.09 1006.57 1007.05 1007.57 1008.13 1008.49 1008.93 1009.25 1009.49 1009.45 1009.41 1009.37 1009.49 1009.61 1009.61 1009.49 1009.61
1000.17 1000.61 1001.05 1001.53 1001.97 1002.25 1002.53 1002.97 1003.25 1003.45 1003.61 1003.85 1004.17 1004.41 1004.65 1004.69 1004.97 1005.21 1005.25 1005.17 1005.09 1005.21 1005.33 1005.69 1005.77 1005.97 1006.25 1006.77 1007.37 1007.89 1008.37 1008.49 1008.77 1009.05 1009.21 1009.09 1009.41 1009.53 1009.29 1009.17 1009.09 1009.05
999.65 1000.17 1000.61 1001.05 1001.49 1001.81 1002.05 1002.37 1002.61 1002.97 1003.29 1003.53 1003.77 1003.97 1004.33 1004.45 1004.57 1004.77 1004.97 1004.89 1004.77 1004.97 1005.09 1005.21 1005.57 1005.69 1005.89 1006.49 1007.05 1007.65 1008.05 1008.09 1008.21 1008.65 1008.77 1008.97 1009.13 1009.09 1009.13 1008.77 1008.61 1008.61
Wind_Speed
13 11 11 11 11 10 10 11 10 10 8 8 9 10 11 9 9 9 9 9 9 9 8 9 8 7 7 7 7 7 7 8 7 7 8 8 6 6 6 5 4 6
15 14 11 11 9 9 9 11 11 11 10 9 8 8 8 9 10 10 9 9 9 10 8 8 8 8 8 7 7 7 7 7 8 6 8 9 7 6 7 7 6 5
15 14 14 13 12 12 12 10 11 10 10 10 8 7 7 9 10 9 9 9 10 10 10 8 8 8 8 8 7 7 7 7 8 7 8 9 7 7 6 7 6 6
16 16 15 15 14 13 12 10 9 9 9 9 9 9 9 7 9 10 10 10 10 10 10 9 9 9 9 9 8 7 7 7 8 7 8 7 7 7 7 6 7 6
17 16 14 14 13 12 11 11 11 10 11 11 10 8 9 9 9 10 10 10 10 10 10 11 10 9 9 9 9 8 8 7 7 7 8 8 8 8 7 6 7 8
16 15 15 15 14 14 13 13 12 11 11 10 12 10 9 11 11 11 11 11 10 11 11 11 11 10 10 9 9 9 9 9 8 9 8 9 9 8 7 7 7 8
16 15 16 14 14 14 14 13 12 12 11 11 10 11 10 10 12 12 12 12 11 11 12 11 11 11 10 10 9 9 9 9 9 10 10 8 8 10 9 8 8 8
17 15 15 14 15 15 15 13 12 12 12 11 11 12 12 12 11 11 11 13 12 12 12 12 12 12 11 10 11 11 10 8 9 10 11 10 9 9 10 8 8 9
15 15 15 15 16 14 15 14 13 13 12 12 12 11 11 12 12 10 11 12 12 12 11 12 13 12 11 11 12 12 12 11 11 11 12 12 11 11 11 10 9 9
16 15 16 16 16 15 15 15 13 13 12 13 13 11 11 11 12 12 10 11 13 12 13 12 12 13 13 12 13 13 13 13 12 12 12 13 13 12 11 11 12 10
17 17 17 18 17 15 16 15 14 13 12 14 13 13 12 11 11 11 11 11 12 13 14 14 13 13 14 14 13 13 14 13 13 12 12 13 13 13 12 12 12 13
18 18 18 19 18 17 17 16 15 14 14 13 14 14 13 12 12 12 12 13 13 13 14 14 14 14 14 15 14 13 13 13 13 12 12 12 12 13 13 12 12 13
18 18 17 17 17 17 15 15 15 15 15 15 14 14 14 13 13 14 12 14 14 13 14 14 14 14 13 14 14 13 14 14 13 13 13 12 12 13 13 13 13 13
18 17 17 17 16 16 15 15 15 15 15 14 14 15 14 14 14 15 14 13 14 14 14 13 13 13 13 13 13 14 13 14 14 14 14 13 12 13 13 13 13 13
16 16 15 16 16 16 16 16 15 15 14 14 14 14 13 15 14 14 14 14 14 14 14 13 13 13 12 13 14 15 14 14 15 15 14 14 13 13 13 13 13 13
17 15 15 16 16 16 16 16 15 14 14 14 14 15 15 14 14 14 14 15 15 14 14 12 12 11 15 21 18 15 15 13 13 14 15 14 14 13 13 13 14 14
16 16 15 16 16 16 15 16 16 14 14 14 14 14 15 14 14 15 15 14 15 15 15 13 13 12 19 19 21 22 16 14 14 14 15 14 14 14 14 14 13 14
16 15 16 16 16 16 16 16 15 14 15 14 14 14 14 13 15 16 15 14 14 15 15 14 14 17 20 20 21 22 20 16 14 13 13 14 14 14 13 13 13 13
15 16 16 15 16 16 15 14 15 15 15 14 16 14 12 14 16 15 15 14 14 15 16 16 15 19 20 21 22 22 23 20 14 14 13 13 14 14 14 13 12 12
16 17 17 16 15 14 14 14 15 16 15 14 13 12 14 15 15 16 14 14 14 15 15 15 16 18 21 22 22 23 23 21 15 14 13 13 14 14 13 14 14 13
17 17 17 15 15 15 14 14 15 14 14 13 13 14 15 15 15 15 15 15 16 14 13 14 15 19 20 22 22 23 23 20 15 13 11 12 13 13 14 14 14 13
16 16 16 15 15 15 15 15 14 14 14 13 12 12 12 11 12 13 14 14 15 15 14 15 14 18 19 21 21 21 21 15 14 14 13 13 13 13 13 12 12 13
15 16 15 15 15 15 16 15 14 14 12 10 11 12 12 13 13 13 13 13 14 14 16 16 14 14 17 19 20 21 17 13 13 13 13 14 14 12 11 11 11 12
14 15 15 15 15 16 15 13 13 11 12 11 13 12 12 13 12 11 11 12 13 15 15 15 13 10 15 17 20 21 19 14 12 12 14 14 13 10 9 9 12 17
12 14 14 15 15 14 14 13 13 12 11 10 11 12 12 10 9 10 11 11 12 13 14 15 12 9 14 16 18 19 18 12 12 12 14 14 11 11 10 10 10 12
12 13 13 14 14 12 12 12 10 10 11 11 10 10 10 10 10 10 11 11 10 10 10 11 11 10 10 16 18 19 20 13 11 12 14 12 11 12 11 12 12 10
Wind_Direction
190 190 190 190 192 190 187 188 190 190 188 184 183 187 187 187 182 185 184 185 185 185 186 189 189 189 185 179 181 177 181 184 179 173 176 183 192 193 195 204 184 176
192 191 192 193 193 192 191 189 188 189 191 187 186 178 181 177 187 185 181 185 186 189 186 185 188 187 186 182 179 178 181 180 184 177 173 183 191 191 196 199 203 186
191 192 194 194 194 195 192 188 187 189 189 192 182 175 173 180 183 187 186 183 188 189 189 187 188 188 186 185 179 179 178 181 184 182 176 185 185 192 199 197 207 202
193 194 195 197 196 196 194 188 186 187 187 187 190 184 181 178 179 186 188 187 186 190 190 190 190 189 187 184 181 184 184 185 186 175 181 182 188 191 197 197 201 214
194 196 196 197 197 196 194 195 192 187 188 190 188 181 181 183 184 187 188 192 187 189 190 192 191 190 188 185 184 186 189 188 187 178 180 188 191 188 200 190 196 207
199 196 194 195 195 193 196 197 196 192 190 185 190 187 184 185 189 190 190 191 190 189 190 191 192 193 189 189 187 192 191 194 192 188 184 190 192 192 194 196 192 199
201 199 198 197 196 197 198 198 196 194 194 193 185 192 188 186 190 192 191 191 189 191 190 191 192 193 191 190 192 195 195 196 194 194 196 194 189 195 196 194 198 197
203 201 201 198 198 197 198 196 196 195 196 192 191 194 192 194 189 191 191 192 191 191 191 190 192 193 192 191 194 196 198 196 197 197 200 200 192 195 198 196 193 201
201 201 201 202 202 201 201 197 196 197 193 194 197 194 193 196 196 191 191 191 193 192 191 191 192 194 194 193 196 196 198 199 197 196 198 200 200 201 199 196 193 199
200 201 200 202 203 203 202 199 196 197 194 196 198 196 194 197 195 195 189 191 194 195 195 195 192 194 196 196 197 197 199 201 199 198 199 199 201 202 199 197 200 198
201 199 200 202 204 203 202 200 198 196 195 197 196 198 198 194 196 195 195 192 195 197 197 198 197 195 197 198 199 199 199 201 202 202 202 202 202 202 200 198 200 201
200 199 200 201 202 203 202 200 199 197 195 197 196 198 197 196 195 196 197 200 200 199 199 200 199 198 199 200 199 198 199 202 205 205 205 204 205 204 203 201 201 202
201 201 200 200 201 202 201 199 200 198 196 196 196 198 197 197 197 197 199 201 204 202 201 200 201 201 200 201 201 199 199 201 204 208 209 208 208 207 207 205 204 203
201 200 200 200 199 199 200 200 200 200 199 195 195 199 199 200 198 198 200 202 204 205 205 201 201 202 202 201 202 200 199 202 204 206 209 211 210 211 210 210 208 206
200 199 200 199 198 198 199 201 200 199 198 196 195 199 201 203 201 199 201 204 206 206 207 205 203 204 203 201 201 203 201 202 204 206 208 210 212 212 211 212 211 210
198 199 198 197 197 198 199 200 199 198 198 199 198 198 200 201 203 203 203 205 206 207 207 207 208 208 205 201 200 201 202 203 203 206 207 209 210 212 213 212 212 212
196 198 196 197 198 197 197 199 199 198 199 200 198 197 198 198 201 205 206 205 205 206 207 208 210 211 204 200 201 201 202 205 204 206 207 209 210 210 212 212 214 214
195 196 198 199 197 198 197 198 199 198 199 199 197 197 198 196 202 206 206 204 205 207 209 209 212 210 202 200 200 202 203 206 209 208 208 210 211 212 213 212 213 215
190 194 198 199 200 199 198 197 198 201 201 198 200 198 193 198 204 203 206 205 205 208 211 211 215 209 202 199 199 201 204 207 211 209 208 211 213 213 214 212 212 215
188 191 195 197 197 198 198 199 199 203 202 200 199 196 199 203 204 204 205 206 208 208 212 215 216 209 201 199 199 200 203 205 216 212 213 214 214 215 216 214 213 213
189 190 193 193 192 194 197 201 202 204 202 200 199 201 203 203 203 205 207 208 211 211 213 217 221 209 199 199 198 199 202 203 217 218 220 221 221 219 219 218 216 216
188 190 190 189 191 192 196 200 200 201 202 202 204 208 210 209 211 212 211 212 213 215 218 222 223 208 199 196 196 197 197 203 214 221 224 225 225 223 221 222 222 219
188 188 188 190 189 191 196 198 198 199 201 198 206 210 209 210 212 213 214 213 214 216 220 226 227 208 196 192 193 192 190 206 211 221 227 230 231 225 224 223 223 222
187 186 187 189 190 193 194 196 197 196 198 192 202 207 212 214 213 218 218 219 217 220 221 228 230 205 187 189 189 188 189 200 209 216 226 229 234 231 228 227 226 222
183 187 188 188 191 193 191 191 193 194 194 191 201 205 213 214 214 218 221 222 223 224 225 228 233 214 187 184 186 187 191 202 203 214 224 227 227 232 230 231 230 222
181 183 186 187 190 188 190 191 187 187 190 194 199 202 208 211 214 216 221 224 223 225 224 223 227 225 193 178 179 185 190 198 205 210 223 222 222 227 230 232 231 230